Time,TemperatureF,DewpointF,PressureIn,WindDirection,WindDirectionDegrees,WindSpeedMPH,WindSpeedGustMPH,Humidity,HourlyPrecipIn,Conditions,Clouds,dailyrainin,SoftwareType,DateUTC
2013-05-24 00:03:00,75.0,67.0,29.99,East,91,4.0,5.0,75,0.48,,,-99.99,,2013-05-24 04:03:00,
2013-05-24 00:12:00,75.0,67.0,29.99,East,86,3.0,4.0,76,0.48,,,-99.99,,2013-05-24 04:12:00,
2013-05-24 00:22:00,75.0,67.0,29.99,East,86,3.0,4.0,76,0.48,,,-99.99,,2013-05-24 04:22:00,
2013-05-24 00:33:00,74.0,66.0,30.00,NE,35,0.0,0.0,77,0.48,,,-99.99,,2013-05-24 04:33:00,
2013-05-24 00:42:00,74.0,66.0,30.00,NE,35,0.0,0.0,77,0.48,,,-99.99,,2013-05-24 04:42:00,
2013-05-24 00:53:00,74.0,67.0,30.00,North,4,0.0,3.0,79,0.48,,,-99.99,,2013-05-24 04:53:00,
2013-05-24 01:02:00,74.0,68.0,30.01,North,1,2.0,4.0,81,0.48,,,-99.99,,2013-05-24 05:02:00,
2013-05-24 01:12:00,74.0,68.0,30.01,North,1,2.0,4.0,81,0.48,,,-99.99,,2013-05-24 05:12:00,
2013-05-24 01:22:00,74.0,66.0,30.00,North,7,0.0,1.0,77,0.48,,,-99.99,,2013-05-24 05:22:00,
2013-05-24 01:32:00,74.0,68.0,30.00,North,0,4.0,6.0,81,0.48,,,-99.99,,2013-05-24 05:32:00,
2013-05-24 01:42:00,74.0,68.0,30.00,North,0,4.0,6.0,81,0.48,,,-99.99,,2013-05-24 05:42:00,
2013-05-24 01:52:00,74.0,68.0,30.00,North,349,6.0,7.0,82,0.48,,,-99.99,,2013-05-24 05:52:00,
2013-05-24 02:02:00,74.0,69.0,29.99,NNW,339,6.0,7.0,84,0.48,,,-99.99,,2013-05-24 06:02:00,
2013-05-24 02:12:00,74.0,69.0,29.99,NNW,339,6.0,7.0,84,0.48,,,-99.99,,2013-05-24 06:12:00,
2013-05-24 02:21:00,74.0,70.0,29.99,North,352,5.0,6.0,88,0.48,,,-99.99,,2013-05-24 06:21:00,
2013-05-24 02:32:00,73.0,69.0,29.99,North,0,3.0,5.0,87,0.48,,,-99.99,,2013-05-24 06:32:00,
2013-05-24 02:42:00,73.0,69.0,29.99,North,0,3.0,5.0,87,0.48,,,-99.99,,2013-05-24 06:42:00,
2013-05-24 02:52:00,73.0,70.0,29.98,NNW,342,4.0,5.0,89,0.48,,,-99.99,,2013-05-24 06:52:00,
2013-05-24 03:01:00,73.0,70.0,29.98,NNW,340,3.0,4.0,91,0.48,,,-99.99,,2013-05-24 07:01:00,
2013-05-24 03:11:00,73.0,71.0,29.98,NNW,330,3.0,4.0,93,0.48,,,-99.99,,2013-05-24 07:11:00,
2013-05-24 03:22:00,73.0,71.0,29.98,NNW,330,3.0,4.0,93,0.48,,,-99.99,,2013-05-24 07:22:00,
2013-05-24 03:32:00,73.0,71.0,29.98,NW,322,3.0,4.0,95,0.48,,,-99.99,,2013-05-24 07:32:00,
2013-05-24 03:42:00,73.0,71.0,29.98,NW,322,3.0,4.0,95,0.48,,,-99.99,,2013-05-24 07:42:00,
2013-05-24 03:52:00,73.0,72.0,29.98,NW,319,4.0,4.0,96,0.48,,,-99.99,,2013-05-24 07:52:00,
2013-05-24 04:02:00,72.0,72.0,29.98,NW,319,5.0,6.0,100,0.48,,,-99.99,,2013-05-24 08:02:00,
2013-05-24 04:11:00,72.0,72.0,29.98,NNW,333,6.0,7.0,100,0.48,,,-99.99,,2013-05-24 08:11:00,
2013-05-24 04:22:00,72.0,72.0,29.98,NNW,333,6.0,7.0,100,0.48,,,-99.99,,2013-05-24 08:22:00,
2013-05-24 04:33:00,72.0,72.0,29.97,NNW,328,5.0,7.0,100,0.48,,,-99.99,,2013-05-24 08:33:00,
2013-05-24 04:42:00,72.0,72.0,29.97,NNW,328,5.0,7.0,100,0.48,,,-99.99,,2013-05-24 08:42:00,
2013-05-24 04:52:00,72.0,72.0,29.98,NW,323,5.0,6.0,100,0.48,,,-99.99,,2013-05-24 08:52:00,
2013-05-24 05:02:00,72.0,72.0,29.97,NW,305,3.0,4.0,100,0.48,,,-99.99,,2013-05-24 09:02:00,
2013-05-24 05:11:00,73.0,73.0,29.98,WNW,293,3.0,5.0,100,0.48,,,-99.99,,2013-05-24 09:11:00,
2013-05-24 05:21:00,73.0,73.0,29.98,WNW,293,3.0,5.0,100,0.48,,,-99.99,,2013-05-24 09:21:00,
2013-05-24 05:32:00,72.0,72.0,29.98,WNW,295,4.0,5.0,100,0.48,,,-99.99,,2013-05-24 09:32:00,
2013-05-24 05:42:00,72.0,72.0,29.98,WNW,295,4.0,5.0,100,0.48,,,-99.99,,2013-05-24 09:42:00,
2013-05-24 05:53:00,72.0,72.0,29.98,NW,309,4.0,5.0,100,0.48,,,-99.99,,2013-05-24 09:53:00,
2013-05-24 06:03:00,72.0,72.0,29.98,WNW,302,4.0,5.0,100,0.48,,,-99.99,,2013-05-24 10:03:00,
2013-05-24 06:12:00,72.0,72.0,29.98,WNW,302,4.0,5.0,100,0.48,,,-99.99,,2013-05-24 10:12:00,
2013-05-24 06:22:00,72.0,72.0,29.99,NW,315,4.0,6.0,100,0.48,,,-99.99,,2013-05-24 10:22:00,
2013-05-24 06:33:00,72.0,72.0,30.00,NW,305,4.0,6.0,100,0.48,,,-99.99,,2013-05-24 10:33:00,
2013-05-24 06:42:00,72.0,72.0,30.00,WNW,297,3.0,5.0,100,0.48,,,-99.99,,2013-05-24 10:42:00,
2013-05-24 06:53:00,72.0,72.0,30.00,WNW,297,3.0,5.0,100,0.48,,,-99.99,,2013-05-24 10:53:00,
2013-05-24 07:02:00,72.0,72.0,30.01,WNW,294,2.0,5.0,100,0.48,,,-99.99,,2013-05-24 11:02:00,
2013-05-24 07:12:00,72.0,72.0,30.01,WNW,294,2.0,5.0,100,0.48,,,-99.99,,2013-05-24 11:12:00,
2013-05-24 07:22:00,72.0,72.0,30.01,NW,311,4.0,6.0,100,0.48,,,-99.99,,2013-05-24 11:22:00,
2013-05-24 07:32:00,72.0,72.0,30.02,NW,309,5.0,7.0,100,0.48,,,-99.99,,2013-05-24 11:32:00,
2013-05-24 07:42:00,72.0,72.0,30.02,NW,309,5.0,7.0,100,0.48,,,-99.99,,2013-05-24 11:42:00,
2013-05-24 07:52:00,73.0,73.0,30.02,NW,318,6.0,8.0,100,0.48,,,-99.99,,2013-05-24 11:52:00,
2013-05-24 08:02:00,73.0,73.0,30.03,NW,312,6.0,8.0,100,0.48,,,-99.99,,2013-05-24 12:02:00,
2013-05-24 08:11:00,73.0,73.0,30.03,NW,312,6.0,8.0,100,0.48,,,-99.99,,2013-05-24 12:11:00,
2013-05-24 08:22:00,74.0,74.0,30.03,NW,311,5.0,8.0,100,0.48,,,-99.99,,2013-05-24 12:22:00,
2013-05-24 08:32:00,74.0,74.0,30.03,NNW,336,8.0,10.0,100,0.48,,,-99.99,,2013-05-24 12:32:00,
2013-05-24 08:42:00,74.0,74.0,30.03,NNW,336,8.0,10.0,100,0.48,,,-99.99,,2013-05-24 12:42:00,
2013-05-24 08:52:00,75.0,75.0,30.03,NW,325,8.0,12.0,100,0.48,,,-99.99,,2013-05-24 12:52:00,
2013-05-24 09:02:00,75.0,74.0,30.03,NW,312,8.0,11.0,97,0.48,,,-99.99,,2013-05-24 13:02:00,
2013-05-24 09:11:00,76.0,73.0,30.03,NW,309,9.0,11.0,90,0.48,,,-99.99,,2013-05-24 13:11:00,
2013-05-24 09:21:00,76.0,73.0,30.03,NW,309,9.0,11.0,90,0.48,,,-99.99,,2013-05-24 13:21:00,
2013-05-24 09:32:00,77.0,72.0,30.03,NW,323,8.0,12.0,86,0.48,,,-99.99,,2013-05-24 13:32:00,
2013-05-24 09:42:00,77.0,72.0,30.03,NW,323,8.0,12.0,86,0.48,,,-99.99,,2013-05-24 13:42:00,
2013-05-24 09:52:00,78.0,73.0,30.03,NW,321,7.0,10.0,84,0.48,,,-99.99,,2013-05-24 13:52:00,
2013-05-24 10:01:00,79.0,71.0,30.04,NW,314,10.0,13.0,77,0.48,,,-99.99,,2013-05-24 14:01:00,
2013-05-24 10:11:00,79.0,71.0,30.04,NW,314,10.0,13.0,77,0.48,,,-99.99,,2013-05-24 14:11:00,
2013-05-24 10:21:00,80.0,72.0,30.04,NW,325,8.0,12.0,78,0.48,,,-99.99,,2013-05-24 14:21:00,
2013-05-24 10:32:00,81.0,72.0,30.04,WNW,301,8.0,11.0,75,0.48,,,-99.99,,2013-05-24 14:32:00,
2013-05-24 10:42:00,81.0,72.0,30.04,WNW,301,8.0,11.0,75,0.48,,,-99.99,,2013-05-24 14:42:00,
2013-05-24 10:52:00,81.0,71.0,30.04,NW,318,9.0,12.0,72,0.48,,,-99.99,,2013-05-24 14:52:00,
2013-05-24 11:02:00,82.0,71.0,30.05,NW,305,8.0,12.0,70,0.48,,,-99.99,,2013-05-24 15:02:00,
2013-05-24 11:11:00,82.0,71.0,30.05,NW,305,8.0,12.0,70,0.48,,,-99.99,,2013-05-24 15:11:00,
2013-05-24 11:21:00,83.0,70.0,30.05,NW,316,7.0,12.0,65,0.48,,,-99.99,,2013-05-24 15:21:00,
2013-05-24 11:33:00,83.0,70.0,30.05,NW,315,7.0,11.0,64,0.48,,,-99.99,,2013-05-24 15:33:00,
2013-05-24 11:43:00,83.0,70.0,30.05,NW,315,7.0,11.0,64,0.48,,,-99.99,,2013-05-24 15:43:00,
2013-05-24 11:52:00,84.0,71.0,30.05,WNW,291,7.0,11.0,65,0.48,,,-99.99,,2013-05-24 15:52:00,
2013-05-24 12:03:00,85.0,68.0,30.05,NNW,338,6.0,12.0,56,0.48,,,-99.99,,2013-05-24 16:03:00,
2013-05-24 12:12:00,85.0,68.0,30.05,NNW,338,6.0,12.0,56,0.48,,,-99.99,,2013-05-24 16:12:00,
2013-05-24 12:22:00,85.0,68.0,30.04,NW,309,6.0,11.0,57,0.48,,,-99.99,,2013-05-24 16:22:00,
2013-05-24 12:32:00,86.0,67.0,30.04,NNW,335,7.0,12.0,54,0.48,,,-99.99,,2013-05-24 16:32:00,
2013-05-24 12:42:00,86.0,67.0,30.04,NNW,335,7.0,12.0,54,0.48,,,-99.99,,2013-05-24 16:42:00,
2013-05-24 12:52:00,87.0,63.0,30.05,NW,325,8.0,15.0,45,0.48,,,-99.99,,2013-05-24 16:52:00,
2013-05-24 13:02:00,88.0,65.0,30.04,NNW,339,5.0,10.0,47,0.48,,,-99.99,,2013-05-24 17:02:00,
2013-05-24 13:12:00,87.0,66.0,30.05,WNW,301,7.0,11.0,50,0.48,,,-99.99,,2013-05-24 17:12:00,
2013-05-24 13:22:00,87.0,66.0,30.05,WNW,301,7.0,11.0,50,0.48,,,-99.99,,2013-05-24 17:22:00,
2013-05-24 13:32:00,88.0,63.0,30.04,NW,304,8.0,13.0,43,0.48,,,-99.99,,2013-05-24 17:32:00,
2013-05-24 13:42:00,88.0,63.0,30.04,NW,304,8.0,13.0,43,0.48,,,-99.99,,2013-05-24 17:42:00,
2013-05-24 13:52:00,89.0,61.0,30.04,NW,323,7.0,11.0,40,0.48,,,-99.99,,2013-05-24 17:52:00,
2013-05-24 14:01:00,90.0,59.0,30.03,WNW,283,5.0,9.0,36,0.48,,,-99.99,,2013-05-24 18:01:00,
2013-05-24 14:12:00,90.0,59.0,30.03,WNW,283,5.0,9.0,36,0.48,,,-99.99,,2013-05-24 18:12:00,
2013-05-24 14:21:00,89.0,61.0,30.03,NW,318,8.0,14.0,40,0.48,,,-99.99,,2013-05-24 18:21:00,
2013-05-24 14:32:00,91.0,62.0,30.03,WNW,298,5.0,11.0,38,0.48,,,-99.99,,2013-05-24 18:32:00,
2013-05-24 14:42:00,90.0,59.0,30.02,NNW,333,6.0,11.0,36,0.48,,,-99.99,,2013-05-24 18:42:00,
2013-05-24 14:52:00,90.0,59.0,30.02,NNW,333,6.0,11.0,36,0.48,,,-99.99,,2013-05-24 18:52:00,
2013-05-24 15:01:00,90.0,59.0,30.02,NW,316,3.0,18.0,35,0.48,,,-99.99,,2013-05-24 19:01:00,
2013-05-24 15:11:00,90.0,59.0,30.02,NW,316,3.0,18.0,35,0.48,,,-99.99,,2013-05-24 19:11:00,
2013-05-24 15:21:00,91.0,61.0,30.02,NNW,335,8.0,12.0,37,0.48,,,-99.99,,2013-05-24 19:21:00,
2013-05-24 15:32:00,91.0,59.0,30.01,NNW,333,7.0,11.0,34,0.48,,,-99.99,,2013-05-24 19:32:00,
2013-05-24 15:42:00,91.0,59.0,30.01,NNW,333,7.0,11.0,34,0.48,,,-99.99,,2013-05-24 19:42:00,
2013-05-24 15:52:00,91.0,60.0,30.01,NNW,342,8.0,15.0,36,0.48,,,-99.99,,2013-05-24 19:52:00,
2013-05-24 16:02:00,92.0,59.0,30.01,NW,309,11.0,18.0,33,0.48,,,-99.99,,2013-05-24 20:02:00,
2013-05-24 16:12:00,92.0,59.0,30.01,NW,309,11.0,18.0,33,0.48,,,-99.99,,2013-05-24 20:12:00,
2013-05-24 16:21:00,92.0,58.0,30.00,West,278,8.0,12.0,32,0.48,,,-99.99,,2013-05-24 20:21:00,
2013-05-24 16:32:00,91.0,59.0,29.99,NW,304,7.0,11.0,34,0.48,,,-99.99,,2013-05-24 20:32:00,
2013-05-24 16:42:00,91.0,59.0,29.99,NW,304,7.0,11.0,34,0.48,,,-99.99,,2013-05-24 20:42:00,
2013-05-24 16:52:00,91.0,55.0,29.99,NW,314,10.0,17.0,30,0.48,,,-99.99,,2013-05-24 20:52:00,
2013-05-24 17:01:00,92.0,53.0,29.99,NW,305,11.0,16.0,27,0.48,,,-99.99,,2013-05-24 21:01:00,
2013-05-24 17:11:00,92.0,53.0,29.99,NW,305,11.0,16.0,27,0.48,,,-99.99,,2013-05-24 21:11:00,
2013-05-24 17:21:00,92.0,52.0,29.99,WNW,284,14.0,21.0,26,0.48,,,-99.99,,2013-05-24 21:21:00,
2013-05-24 17:33:00,92.0,53.0,29.99,NW,304,11.0,17.0,27,0.48,,,-99.99,,2013-05-24 21:33:00,
2013-05-24 17:42:00,92.0,53.0,29.99,NW,304,11.0,17.0,27,0.48,,,-99.99,,2013-05-24 21:42:00,
2013-05-24 17:53:00,92.0,49.0,29.99,NW,318,13.0,19.0,23,0.48,,,-99.99,,2013-05-24 21:53:00,
2013-05-24 18:02:00,91.0,50.0,29.99,NW,315,13.0,19.0,25,0.48,,,-99.99,,2013-05-24 22:02:00,
2013-05-24 18:12:00,91.0,50.0,29.99,NW,315,13.0,19.0,25,0.48,,,-99.99,,2013-05-24 22:12:00,
2013-05-24 18:22:00,91.0,52.0,29.99,WNW,298,14.0,22.0,27,0.48,,,-99.99,,2013-05-24 22:22:00,
2013-05-24 18:33:00,91.0,52.0,29.99,WNW,298,14.0,22.0,27,0.48,,,-99.99,,2013-05-24 22:33:00,
2013-05-24 18:42:00,91.0,52.0,29.99,WNW,298,14.0,22.0,27,0.48,,,-99.99,,2013-05-24 22:42:00,
2013-05-24 18:52:00,90.0,51.0,29.99,NW,309,13.0,17.0,27,0.48,,,-99.99,,2013-05-24 22:52:00,
2013-05-24 19:02:00,90.0,51.0,29.99,NW,309,13.0,17.0,27,0.48,,,-99.99,,2013-05-24 23:02:00,
2013-05-24 19:11:00,90.0,51.0,29.99,NW,309,13.0,17.0,27,0.48,,,-99.99,,2013-05-24 23:11:00,
2013-05-24 19:22:00,90.0,51.0,29.99,NW,309,13.0,17.0,27,0.48,,,-99.99,,2013-05-24 23:22:00,
2013-05-24 19:32:00,88.0,57.0,30.00,WNW,291,11.0,17.0,35,0.48,,,-99.99,,2013-05-24 23:32:00,
2013-05-24 19:42:00,88.0,57.0,30.00,WNW,291,11.0,17.0,35,0.48,,,-99.99,,2013-05-24 23:42:00,
2013-05-24 19:52:00,88.0,57.0,30.00,WNW,291,11.0,17.0,35,0.48,,,-99.99,,2013-05-24 23:52:00,
2013-05-24 20:01:00,86.0,60.0,30.01,West,274,10.0,13.0,41,0.48,,,-99.99,,2013-05-25 00:01:00,
2013-05-24 20:12:00,86.0,60.0,30.01,West,274,10.0,13.0,41,0.48,,,-99.99,,2013-05-25 00:12:00,
2013-05-24 20:22:00,86.0,60.0,30.01,West,274,10.0,13.0,41,0.48,,,-99.99,,2013-05-25 00:22:00,
2013-05-24 20:32:00,84.0,61.0,30.02,NW,309,9.0,12.0,46,0.48,,,-99.99,,2013-05-25 00:32:00,
2013-05-24 20:42:00,84.0,61.0,30.02,NW,309,9.0,12.0,46,0.48,,,-99.99,,2013-05-25 00:42:00,
2013-05-24 20:52:00,83.0,61.0,30.02,WNW,297,8.0,11.0,48,0.48,,,-99.99,,2013-05-25 00:52:00,
2013-05-24 21:01:00,83.0,61.0,30.02,WNW,297,8.0,11.0,48,0.48,,,-99.99,,2013-05-25 01:01:00,
2013-05-24 21:11:00,83.0,61.0,30.02,WNW,297,8.0,11.0,48,0.48,,,-99.99,,2013-05-25 01:11:00,
2013-05-24 21:22:00,82.0,63.0,30.03,ENE,58,4.0,8.0,53,0.48,,,-99.99,,2013-05-25 01:22:00,
2013-05-24 21:32:00,81.0,64.0,30.03,ENE,76,5.0,7.0,56,0.48,,,-99.99,,2013-05-25 01:32:00,
2013-05-24 21:42:00,81.0,64.0,30.03,ENE,76,5.0,7.0,56,0.48,,,-99.99,,2013-05-25 01:42:00,
2013-05-24 21:52:00,80.0,64.0,30.04,East,82,8.0,11.0,59,0.48,,,-99.99,,2013-05-25 01:52:00,
2013-05-24 22:02:00,80.0,65.0,30.04,East,96,7.0,9.0,60,0.48,,,-99.99,,2013-05-25 02:02:00,
2013-05-24 22:12:00,80.0,65.0,30.04,East,97,5.0,7.0,61,0.48,,,-99.99,,2013-05-25 02:12:00,
2013-05-24 22:21:00,80.0,65.0,30.04,East,97,5.0,7.0,61,0.48,,,-99.99,,2013-05-25 02:21:00,
2013-05-24 22:32:00,78.0,65.0,30.06,East,84,8.0,10.0,65,0.48,,,-99.99,,2013-05-25 02:32:00,
2013-05-24 22:42:00,78.0,65.0,30.06,East,84,8.0,10.0,65,0.48,,,-99.99,,2013-05-25 02:42:00,
2013-05-24 22:51:00,78.0,65.0,30.06,East,101,8.0,10.0,65,0.48,,,-99.99,,2013-05-25 02:51:00,
2013-05-24 23:02:00,78.0,65.0,30.07,East,101,6.0,8.0,65,0.48,,,-99.99,,2013-05-25 03:02:00,
2013-05-24 23:11:00,78.0,65.0,30.07,East,101,6.0,8.0,65,0.48,,,-99.99,,2013-05-25 03:11:00,
2013-05-24 23:21:00,77.0,65.0,30.07,ENE,70,0.0,1.0,66,0.48,,,-99.99,,2013-05-25 03:21:00,
2013-05-24 23:32:00,77.0,65.0,30.07,East,100,5.0,6.0,66,0.48,,,-99.99,,2013-05-25 03:32:00,
2013-05-24 23:43:00,77.0,65.0,30.07,East,100,5.0,6.0,66,0.48,,,-99.99,,2013-05-25 03:43:00,
2013-05-24 23:53:00,77.0,65.0,30.07,East,100,5.0,6.0,66,0.48,,,-99.99,,2013-05-25 03:53:00,